When you browse on this site, cookies collect data to enhance your experience and personalize the content and advertising you see.
Visit our Privacy Policy to learn more. By continuing to use the site, you agree to this use of cookies and data.
  • In Hungary
  • List of Countries
  • For 7 days
  • Water Temperature
  • Satellite Maps
  • Weather Map
  • News
  • Weather Widgets
  • user-avatar
    Login

    Hourly Weather Ischino

    Today, 21 November, Wednesday

    Time Temperature Precipitation Wind Pressure Humidity
    00:00 -5°C° 0 mm 3 mps 748 mmHg 76%
    01:00 -5°C° 0 mm 3 mps 748 mmHg 79%
    02:00 -5°C° 0 mm 3 mps 748 mmHg 83%
    03:00 -5°C° 0 mm 3 mps 748 mmHg 83%
    04:00 -5°C° 0 mm 3 mps 748 mmHg 84%
    05:00 -4°C° 0 mm 3 mps 748 mmHg 84%
    06:00 -4°C° 0 mm 3 mps 748 mmHg 84%
    07:00 -4°C° 0 mm 3 mps 749 mmHg 85%
    08:00 -4°C° 0 mm 3 mps 749 mmHg 85%
    09:00 -4°C° 0 mm 3 mps 749 mmHg 83%
    10:00 -2°C° 0 mm 3 mps 749 mmHg 82%
    11:00 -2°C° 0 mm 2 mps 749 mmHg 80%
    12:00 -2°C° 0 mm 2 mps 749 mmHg 81%
    13:00 -2°C° 0 mm 2 mps 749 mmHg 82%
    14:00 -2°C° 0 mm 2 mps 749 mmHg 83%
    15:00 -4°C° 0 mm 3 mps 749 mmHg 84%
    16:00 -4°C° 0 mm 3 mps 749 mmHg 86%
    17:00 -4°C° 0 mm 3 mps 749 mmHg 88%
    18:00 -4°C° 0 mm 3 mps 748 mmHg 87%
    19:00 -4°C° 0 mm 3 mps 748 mmHg 86%
    20:00 -4°C° 0 mm 4 mps 748 mmHg 84%
    21:00 -4°C° 0 mm 4 mps 747 mmHg 84%
    22:00 -4°C° 0 mm 3 mps 747 mmHg 83%
    23:00 -4°C° 0 mm 3 mps 747 mmHg 82%

    Tomorrow, 22 November, Thursday

    Time Temperature Precipitation Wind Pressure Humidity
    00:00 -4°C° 0 mm 3 mps 747 mmHg 82%
    01:00 -4°C° 0 mm 4 mps 746 mmHg 83%
    02:00 -4°C° 0 mm 4 mps 746 mmHg 84%
    03:00 -4°C° 0 mm 4 mps 746 mmHg 84%
    04:00 -5°C° 0 mm 4 mps 745 mmHg 84%
    05:00 -5°C° 0 mm 4 mps 745 mmHg 84%
    06:00 -5°C° 0 mm 4 mps 744 mmHg 84%
    07:00 -5°C° 0 mm 4 mps 744 mmHg 84%
    08:00 -5°C° 0 mm 4 mps 744 mmHg 84%
    09:00 -5°C° 0 mm 5 mps 744 mmHg 82%
    10:00 -5°C° 0 mm 5 mps 743 mmHg 80%
    11:00 -4°C° 0 mm 5 mps 743 mmHg 77%
    12:00 -4°C° 0 mm 5 mps 743 mmHg 77%
    13:00 -4°C° 0 mm 5 mps 742 mmHg 77%
    14:00 -4°C° 0 mm 5 mps 742 mmHg 76%
    15:00 -2°C° 0 mm 5 mps 742 mmHg 78%
    16:00 -2°C° 0 mm 5 mps 742 mmHg 79%
    17:00 -2°C° 0 mm 5 mps 742 mmHg 80%
    18:00 -2°C° 0 mm 5 mps 742 mmHg 81%
    19:00 -2°C° 0 mm 5 mps 742 mmHg 81%
    20:00 -2°C° 0 mm 5 mps 742 mmHg 82%
    21:00 -2°C° 0 mm 4 mps 743 mmHg 82%
    22:00 -2°C° 0 mm 4 mps 743 mmHg 82%
    23:00 -2°C° 0 mm 4 mps 743 mmHg 83%

    Day after tomorrow, 23 November, Friday

    Time Temperature Precipitation Wind Pressure Humidity
    00:00 -3°C° 0 mm 4 mps 744 mmHg 83%
    01:00 -3°C° 0 mm 4 mps 744 mmHg 84%
    02:00 -4°C° 0 mm 3 mps 745 mmHg 85%
    03:00 -4°C° 0 mm 3 mps 745 mmHg 86%
    04:00 -5°C° 0 mm 3 mps 746 mmHg 87%
    05:00 -5°C° 0 mm 3 mps 746 mmHg 89%
    06:00 -4°C° 0 mm 2 mps 747 mmHg 89%
    07:00 -5°C° 0 mm 2 mps 747 mmHg 89%
    08:00 -5°C° 0 mm 2 mps 748 mmHg 89%
    09:00 -4°C° 0 mm 2 mps 748 mmHg 84%
    10:00 -4°C° 0 mm 2 mps 748 mmHg 80%
    11:00 -1°C° 0 mm 1 mps 749 mmHg 75%
    12:00 -1°C° 0 mm 1 mps 749 mmHg 75%
    13:00 -3°C° 0 mm 2 mps 749 mmHg 74%
    14:00 -3°C° 0 mm 2 mps 749 mmHg 74%
    15:00 -3°C° 0 mm 2 mps 749 mmHg 78%
    16:00 -4°C° 0 mm 2 mps 748 mmHg 81%
    17:00 -4°C° 0 mm 2 mps 748 mmHg 85%
    18:00 -5°C° 0 mm 3 mps 748 mmHg 85%
    19:00 -4°C° 0 mm 3 mps 748 mmHg 85%
    20:00 -4°C° 0 mm 3 mps 747 mmHg 85%
    21:00 -4°C° 0 mm 3 mps 747 mmHg 84%
    22:00 -3°C° 0 mm 4 mps 747 mmHg 82%
    23:00 -3°C° 0 mm 4 mps 746 mmHg 81%

    24 November, Saturday

    Time Temperature Precipitation Wind Pressure Humidity
    00:00 -3°C° 0 mm 4 mps 746 mmHg 80%
    01:00 -3°C° 0 mm 4 mps 745 mmHg 80%
    02:00 -4°C° 0 mm 5 mps 745 mmHg 80%
    03:00 -4°C° 0 mm 5 mps 744 mmHg 79%
    04:00 -4°C° 0 mm 5 mps 744 mmHg 78%
    05:00 -4°C° 0 mm 5 mps 743 mmHg 77%
    06:00 -5°C° 0 mm 5 mps 743 mmHg 78%
    07:00 -5°C° 0 mm 5 mps 742 mmHg 78%
    08:00 -5°C° 0 mm 5 mps 742 mmHg 78%
    09:00 -5°C° 0 mm 5 mps 742 mmHg 77%
    10:00 -5°C° 0 mm 5 mps 742 mmHg 76%
    11:00 -5°C° 0 mm 5 mps 741 mmHg 75%
    12:00 -5°C° 0 mm 5 mps 741 mmHg 75%
    13:00 -5°C° 0 mm 5 mps 740 mmHg 74%
    14:00 -4°C° 0 mm 4 mps 740 mmHg 74%
    15:00 -4°C° 0 mm 4 mps 740 mmHg 75%
    16:00 -5°C° 0 mm 4 mps 739 mmHg 76%
    17:00 -5°C° 0 mm 4 mps 739 mmHg 76%
    18:00 -5°C° 0 mm 4 mps 739 mmHg 77%
    19:00 -5°C° 0 mm 4 mps 739 mmHg 77%
    20:00 -4°C° 0 mm 4 mps 738 mmHg 77%
    21:00 -4°C° 0.1 mm 4 mps 738 mmHg 79%
    22:00 -4°C° 0.1 mm 4 mps 738 mmHg 81%
    23:00 -4°C° 0.1 mm 4 mps 738 mmHg 83%

    25 November, Sunday

    Time Temperature Precipitation Wind Pressure Humidity
    00:00 -4°C° 0.1 mm 3 mps 738 mmHg 85%
    01:00 -4°C° 0.1 mm 3 mps 738 mmHg 86%
    02:00 -4°C° 0.1 mm 3 mps 738 mmHg 87%
    03:00 -4°C° 0 mm 3 mps 738 mmHg 87%
    04:00 -3°C° 0 mm 2 mps 738 mmHg 87%
    05:00 -3°C° 0 mm 2 mps 739 mmHg 87%
    06:00 -3°C° 0 mm 2 mps 739 mmHg 88%
    07:00 -3°C° 0 mm 2 mps 739 mmHg 89%
    08:00 -1°C° 0 mm 1 mps 740 mmHg 90%
    09:00 -1°C° 0 mm 1 mps 740 mmHg 87%
    10:00 0°C° 0 mm 1 mps 740 mmHg 84%
    11:00 0°C° 0 mm 1 mps 740 mmHg 81%
    12:00 0°C° 0 mm 1 mps 740 mmHg 81%
    13:00 0°C° 0 mm 1 mps 740 mmHg 81%
    14:00 -1°C° 0 mm 1 mps 740 mmHg 81%
    15:00 -2°C° 0 mm 0 mps 740 mmHg 84%
    16:00 -3°C° 0 mm 0 mps 740 mmHg 86%
    17:00 -4°C° 0 mm 0 mps 740 mmHg 89%
    18:00 -4°C° 0 mm 0 mps 740 mmHg 89%
    19:00 -4°C° 0 mm 0 mps 740 mmHg 90%
    20:00 -4°C° 0 mm 0 mps 740 mmHg 90%
    21:00 -4°C° 0 mm 0 mps 739 mmHg 90%
    22:00 -4°C° 0 mm 0 mps 739 mmHg 90%
    23:00 -4°C° 0 mm 0 mps 739 mmHg 89%

    26 November, Monday

    Time Temperature Precipitation Wind Pressure Humidity
    00:00 -4°C° 0 mm 0 mps 738 mmHg 89%
    01:00 -4°C° 0 mm 0 mps 738 mmHg 89%
    02:00 -4°C° 0 mm 0 mps 738 mmHg 89%
    03:00 -4°C° 0.1 mm 0 mps 737 mmHg 90%
    04:00 -4°C° 0.1 mm 0 mps 737 mmHg 91%
    05:00 -3°C° 0.1 mm 1 mps 736 mmHg 92%
    06:00 -3°C° 0.1 mm 1 mps 736 mmHg 92%
    07:00 -3°C° 0.1 mm 1 mps 736 mmHg 92%
    08:00 -5°C° 0.1 mm 2 mps 736 mmHg 92%
    09:00 -5°C° 0 mm 2 mps 736 mmHg 89%
    10:00 -5°C° 0 mm 2 mps 736 mmHg 86%
    11:00 -6°C° 0 mm 3 mps 736 mmHg 83%
    12:00 -6°C° 0 mm 3 mps 736 mmHg 81%
    13:00 -6°C° 0 mm 3 mps 737 mmHg 79%
    14:00 -5°C° 0 mm 3 mps 737 mmHg 76%
    15:00 -6°C° 0 mm 3 mps 737 mmHg 77%
    16:00 -6°C° 0 mm 3 mps 737 mmHg 77%
    17:00 -6°C° 0 mm 3 mps 738 mmHg 77%
    18:00 -6°C° 0 mm 3 mps 738 mmHg 79%
    19:00 -6°C° 0 mm 2 mps 738 mmHg 80%
    20:00 -6°C° 0 mm 2 mps 738 mmHg 82%
    21:00 -7°C° 0 mm 2 mps 738 mmHg 84%
    22:00 -7°C° 0 mm 2 mps 739 mmHg 86%
    23:00 -7°C° 0 mm 2 mps 739 mmHg 88%
    Show more